Content
SEND FEEDBACK

Daily
Averages
Monthly
Summary
United States of America

BAYOU LA BATRE, ALABAMA


Home > North America > United States > Alabama
Elevation: 0 feet     Latitude: 30 23N     Longitude: 088 14W

WEATHER
 
SELECT A DAY
Number of Records: 200,141;   Date Range: 8/14/97 - 11/26/14
 
SHARE

PRINT THIS DATA

[ ← Previous Day ]
WEATHER ALMANAC - FEBRUARY 13, 2014
[ Next Day → ]
[ °C ]   °F
Weather ElementAverageHighLow
Temperature40.3 °F53.1 °F (2:53 pm)36 °F (11:15 pm)
Dewpoint36 °F41 °F (4:53 pm)33.1 °F (3:53 am)
Humidity86.2 %100 % (9:51 pm)50 % (2:53 pm)
Barometer30.02 in30.07 in (8:53 am)29.95 in (1:33 am)
Wind Speed4.2 mph11.5 mph (8:53 am)
Wind Gust21.9 mph (4:53 am)
Weather ElementAverage
Visibility6.5 mi
Wind DirectionSE (137.5 °)

Weather ElementTotal
Precipitation---
Heating Degree Days20.5 (Base 65)
Averaged from 40 records on February 13, 2014
WEATHER CONDITIONS BREAKOUT
WIND DIRECTION BREAKOUT
WEATHER BY HOUR - FEBRUARY 13, 2014
[ °C ]   °F
Local TimeTemperatureDewpointHumidityBarometerVisibilityWind DirectionWind SpeedGust SpeedPrecipitationEventsConditions
1:33 AM37.9 °F35.1 °F89 %29.95 in10.0 miNNW (330°)10.4 mph17.3 mphOvercast
1:53 AM37.9 °F35.1 °F89 %29.96 in10.0 miNorthOvercast
2:53 AM37.9 °F34.0 °F86 %29.96 in10.0 miNNW (340°)9.2 mph17.3 mphOvercast
3:53 AM37.0 °F33.1 °F86 %29.97 in10.0 miNNW (340°)10.4 mph20.7 mphOvercast
4:53 AM37.0 °F33.1 °F86 %29.99 in10.0 miVariable6.9 mph21.9 mphOvercast
5:22 AM37.0 °F33.1 °F86 %29.99 in10.0 miVariable5.8 mphOvercast
5:53 AM37.0 °F33.1 °F86 %30.01 in10.0 miNorth (350°)6.9 mphOvercast
6:39 AM37.0 °F33.1 °F86 %30.02 in10.0 miNNW (340°)9.2 mphOvercast
6:53 AM37.0 °F33.1 °F86 %30.03 in10.0 miNorth (350°)6.9 mphOvercast
7:53 AM37.0 °F33.1 °F86 %30.06 in10.0 miNNW (340°)6.9 mph16.1 mphOvercast
8:53 AM37.9 °F33.1 °F83 %30.07 in10.0 miNorth (350°)11.5 mphOvercast
9:53 AM39.0 °F34.0 °F82 %30.07 in10.0 miNNW (340°)9.2 mphOvercast
10:43 AM43.0 °F35.1 °F74 %30.07 in10.0 miNorth (360°)10.4 mphMostly Cloudy
10:53 AM44.1 °F36.0 °F73 %30.07 in10.0 miNorth (10°)10.4 mphMostly Cloudy
11:24 AM44.1 °F35.1 °F71 %30.04 in10.0 miNNW (340°)8.1 mphScattered Clouds
11:53 AM46.9 °F37.0 °F68 %30.04 in10.0 miNorth (350°)9.2 mphClear
12:53 PM48.9 °F35.1 °F59 %30.01 in10.0 miNorth (350°)4.6 mphClear
1:53 PM52.0 °F35.1 °F53 %29.99 in10.0 miNW (310°)6.9 mphClear
2:53 PM53.1 °F35.1 °F50 %29.98 in10.0 miWest (270°)5.8 mphClear
3:53 PM52.0 °F39.9 °F63 %29.98 in10.0 miSW (230°)5.8 mphClear
4:53 PM48.9 °F41.0 °F74 %29.99 in10.0 miSSW (200°)6.9 mphClear
5:53 PM46.0 °F39.9 °F79 %30.01 in10.0 miNorthClear
6:53 PM42.1 °F39.9 °F92 %30.02 in10.0 miCalmClear
7:53 PM39.9 °F39.0 °F97 %30.02 in10.0 miCalmClear
8:17 PM39.0 °F37.9 °F96 %30.02 in1.5 miCalmClear
8:25 PM39.0 °F37.9 °F96 %30.02 in0.5 miCalmFogFog
8:48 PM39.2 °F37.4 °F93 %30.02 in2.5 miCalmClear
8:53 PM39.0 °F37.9 °F96 %30.02 in1.0 miCalmClear
9:51 PM37.4 °F37.4 °F100 %30.02 in0.5 miCalmFogFog
9:53 PM37.0 °F37.0 °F100 %30.03 in0.2 miCalmFogFog
10:01 PM37.0 °F37.0 °F100 %30.02 in1.0 miCalmClear
10:13 PM37.9 °F37.0 °F97 %30.02 in3.0 miCalmClear
10:31 PM37.9 °F37.0 °F97 %30.02 in1.2 miCalmClear
10:39 PM37.0 °F37.0 °F100 %30.02 in0.5 miCalmFogFog
10:46 PM37.0 °F37.0 °F100 %30.02 in2.0 miCalmClear
10:53 PM37.0 °F36.0 °F96 %30.02 in1.5 miCalmClear
11:15 PM36.0 °F36.0 °F100 %30.02 in0.8 miCalmClear
11:24 PM37.0 °F36.0 °F96 %30.01 in1.5 miCalmClear
11:28 PM36.0 °F36.0 °F100 %30.02 in3.0 miCalmClear
11:53 PM36.0 °F35.1 °F97 %30.03 in1.2 miCalmClear
Hourly data recorded from KPQL, located miles away from Bayou La Batre, Alabama







STORIES FROM OUR PARTNERS